GFSNE_sfc_vis_159.txt.gz
Visibility
15.0 15.0 15.0 15.0 15.0 15.0 15.0 15.0 15.0 15.0 15.0 15.0 15.0 15.0 15.0 15.0 15.0 15.0 11.9 15.0 13.4 15.0 15.0 15.0 15.0 15.0 15.0 15.0 15.0 15.0 15.0 15.0 15.0 15.0 15.0 15.0 15.0 15.0
15.0 15.0 15.0 15.0 15.0 15.0 15.0 15.0 15.0 15.0 15.0 15.0 15.0 15.0 15.0 15.0 11.3 15.0 9.4 15.0 15.0 15.0 10.5 15.0 15.0 15.0 15.0 15.0 15.0 15.0 15.0 15.0 15.0 15.0 15.0 15.0 15.0 15.0
15.0 15.0 15.0 15.0 15.0 15.0 11.3 15.0 15.0 15.0 15.0 15.0 15.0 15.0 15.0 15.0 4.9 5.8 15.0 15.0 6.9 10.8 15.0 15.0 15.0 15.0 15.0 15.0 15.0 15.0 15.0 15.0 15.0 15.0 15.0 15.0 15.0 15.0
15.0 15.0 15.0 15.0 15.0 15.0 15.0 7.4 15.0 15.0 15.0 15.0 15.0 15.0 15.0 15.0 14.9 14.4 15.0 15.0 13.1 10.1 15.0 15.0 15.0 15.0 15.0 15.0 15.0 15.0 15.0 15.0 15.0 15.0 15.0 15.0 15.0 15.0
15.0 15.0 15.0 15.0 15.0 15.0 15.0 15.0 15.0 15.0 15.0 15.0 15.0 15.0 15.0 1.6 0.1 13.7 12.3 15.0 15.0 15.0 15.0 15.0 15.0 15.0 15.0 15.0 15.0 15.0 15.0 15.0 15.0 15.0 15.0 15.0 15.0 15.0
15.0 15.0 15.0 15.0 15.0 15.0 15.0 15.0 15.0 15.0 15.0 15.0 15.0 2.7 15.0 15.0 13.5 0.1 0.3 15.0 15.0 15.0 15.0 15.0 15.0 15.0 15.0 15.0 15.0 15.0 15.0 15.0 15.0 15.0 15.0 15.0 15.0 15.0
15.0 15.0 15.0 15.0 15.0 15.0 15.0 15.0 15.0 15.0 15.0 15.0 15.0 15.0 14.1 0.1 0.1 0.4 4.7 15.0 15.0 15.0 15.0 15.0 15.0 15.0 15.0 15.0 15.0 15.0 15.0 15.0 15.0 15.0 15.0 15.0 15.0 15.0
15.0 15.0 15.0 15.0 15.0 15.0 15.0 15.0 4.4 8.1 15.0 15.0 15.0 15.0 15.0 15.0 15.0 2.3 0.1 15.0 14.9 14.8 15.0 15.0 15.0 15.0 15.0 15.0 15.0 15.0 15.0 15.0 15.0 15.0 15.0 15.0 15.0 15.0
15.0 2.7 15.0 15.0 15.0 15.0 15.0 15.0 15.0 8.2 4.3 12.4 15.0 15.0 15.0 10.7 5.5 0.7 15.0 15.0 15.0 12.4 15.0 15.0 15.0 10.3 15.0 15.0 15.0 15.0 15.0 15.0 15.0 15.0 15.0 15.0 15.0 15.0
15.0 15.0 15.0 15.0 15.0 15.0 15.0 15.0 15.0 15.0 6.8 9.9 15.0 15.0 15.0 9.2 15.0 4.4 5.5 11.8 15.0 15.0 15.0 7.9 10.7 15.0 15.0 15.0 15.0 15.0 15.0 15.0 15.0 15.0 15.0 15.0 15.0 15.0
15.0 13.3 15.0 15.0 15.0 13.0 9.6 15.0 15.0 15.0 15.0 15.0 15.0 9.4 15.0 6.4 6.7 5.7 11.2 4.0 15.0 15.0 15.0 15.0 15.0 15.0 15.0 15.0 15.0 15.0 15.0 15.0 15.0 15.0 15.0 15.0 15.0 15.0
15.0 15.0 15.0 15.0 14.2 0.5 2.6 15.0 15.0 15.0 9.4 6.7 13.7 14.5 14.1 1.4 5.4 6.0 7.1 5.9 7.0 13.9 11.3 14.9 15.0 15.0 15.0 15.0 15.0 15.0 15.0 15.0 15.0 15.0 15.0 15.0 15.0 15.0
15.0 15.0 15.0 0.2 0.1 0.0 0.2 14.1 14.7 5.5 4.9 4.1 6.7 7.8 12.7 9.9 10.6 14.8 15.0 15.0 15.0 15.0 12.7 15.0 14.9 15.0 15.0 4.7 15.0 15.0 15.0 15.0 15.0 15.0 15.0 15.0 15.0 15.0
15.0 15.0 8.1 0.0 0.0 0.0 0.0 0.3 0.1 3.3 0.7 0.3 1.0 2.7 6.1 1.6 3.0 5.1 8.0 12.5 8.3 6.5 6.2 15.0 15.0 15.0 15.0 15.0 9.7 15.0 15.0 15.0 15.0 15.0 15.0 15.0 15.0 15.0
15.0 2.5 0.0 0.0 0.0 0.0 0.0 0.0 0.1 0.2 0.5 0.2 0.2 0.1 0.2 0.9 3.7 2.9 8.9 5.5 5.9 6.7 14.4 15.0 15.0 15.0 15.0 15.0 15.0 15.0 15.0 15.0 15.0 15.0 15.0 15.0 15.0 15.0
0.3 0.4 0.1 0.0 0.0 0.0 0.0 0.1 0.3 8.9 15.0 5.0 0.1 5.6 4.3 10.5 1.9 2.6 2.3 2.7 10.6 15.0 15.0 15.0 15.0 15.0 15.0 15.0 15.0 15.0 15.0 15.0 15.0 15.0 15.0 15.0 15.0 15.0
0.0 0.0 0.0 0.0 0.0 0.0 0.0 0.1 0.2 14.5 0.9 14.3 10.1 4.0 15.0 8.1 7.7 1.9 5.3 2.8 6.0 15.0 15.0 15.0 15.0 15.0 15.0 15.0 15.0 15.0 15.0 15.0 15.0 15.0 15.0 15.0 15.0 15.0
0.1 0.0 0.0 0.0 0.1 0.1 0.1 0.1 8.4 13.7 15.0 15.0 15.0 13.3 8.1 6.9 7.9 9.1 13.4 7.0 14.1 15.0 15.0 15.0 15.0 15.0 15.0 15.0 15.0 15.0 15.0 15.0 15.0 15.0 15.0 15.0 15.0 15.0
0.2 0.2 0.1 0.2 0.2 0.4 0.9 6.8 1.1 15.0 15.0 15.0 15.0 15.0 10.2 5.9 3.7 14.9 15.0 15.0 15.0 15.0 15.0 15.0 15.0 15.0 15.0 15.0 15.0 15.0 15.0 15.0 15.0 15.0 15.0 15.0 15.0 15.0
0.9 0.3 0.5 5.8 1.4 12.5 14.4 15.0 15.0 15.0 15.0 14.1 12.9 11.8 15.0 15.0 15.0 15.0 15.0 15.0 15.0 15.0 15.0 15.0 15.0 15.0 15.0 15.0 15.0 15.0 15.0 15.0 15.0 15.0 15.0 15.0 15.0 15.0
14.9 0.9 1.1 5.5 5.5 15.0 6.3 12.1 7.5 6.4 10.1 13.7 9.4 7.9 15.0 15.0 15.0 15.0 15.0 15.0 15.0 15.0 15.0 15.0 15.0 15.0 15.0 15.0 15.0 15.0 15.0 15.0 15.0 15.0 15.0 15.0 15.0 15.0
13.0 9.6 4.3 4.7 2.5 7.4 5.9 6.3 11.0 14.5 15.0 15.0 15.0 15.0 15.0 15.0 15.0 15.0 15.0 15.0 15.0 15.0 15.0 15.0 15.0 15.0 15.0 15.0 15.0 15.0 15.0 15.0 15.0 15.0 15.0 15.0 15.0 15.0
15.0 15.0 7.6 4.8 3.1 8.0 11.5 15.0 15.0 15.0 15.0 15.0 15.0 15.0 15.0 15.0 15.0 15.0 15.0 15.0 15.0 15.0 15.0 15.0 15.0 15.0 15.0 15.0 15.0 15.0 15.0 15.0 15.0 15.0 15.0 15.0 15.0 15.0

GFSNE_sfc_vis_162.txt.gz
Visibility
15.0 15.0 15.0 15.0 15.0 15.0 15.0 15.0 15.0 15.0 15.0 15.0 15.0 15.0 15.0 15.0 15.0 15.0 15.0 15.0 15.0 15.0 15.0 15.0 15.0 11.7 15.0 15.0 15.0 15.0 15.0 15.0 15.0 15.0 15.0 15.0 15.0 15.0
15.0 15.0 15.0 15.0 15.0 15.0 15.0 15.0 15.0 15.0 15.0 15.0 15.0 15.0 15.0 15.0 14.0 15.0 15.0 15.0 7.6 15.0 15.0 15.0 15.0 15.0 15.0 15.0 15.0 15.0 15.0 15.0 15.0 15.0 15.0 15.0 15.0 15.0
15.0 15.0 15.0 15.0 15.0 15.0 15.0 15.0 11.2 15.0 15.0 15.0 15.0 15.0 15.0 11.3 7.6 13.0 15.0 15.0 15.0 15.0 15.0 15.0 15.0 15.0 15.0 15.0 15.0 15.0 15.0 15.0 15.0 15.0 15.0 15.0 15.0 15.0
15.0 15.0 15.0 14.9 15.0 15.0 15.0 15.0 15.0 15.0 15.0 15.0 15.0 15.0 15.0 15.0 14.2 0.3 15.0 15.0 15.0 15.0 15.0 15.0 15.0 15.0 15.0 15.0 15.0 15.0 15.0 15.0 15.0 15.0 15.0 15.0 15.0 15.0
15.0 15.0 15.0 15.0 15.0 15.0 15.0 15.0 5.9 10.5 15.0 15.0 15.0 15.0 15.0 15.0 0.2 0.5 0.2 15.0 15.0 9.2 15.0 15.0 15.0 15.0 15.0 15.0 15.0 15.0 15.0 15.0 15.0 15.0 15.0 15.0 15.0 15.0
15.0 15.0 15.0 15.0 15.0 15.0 15.0 15.0 15.0 12.7 15.0 15.0 15.0 15.0 15.0 15.0 6.0 0.0 0.1 0.7 3.0 12.5 15.0 15.0 15.0 15.0 15.0 15.0 15.0 15.0 15.0 15.0 15.0 15.0 15.0 15.0 15.0 15.0
15.0 15.0 15.0 15.0 15.0 8.3 14.0 15.0 14.5 7.0 12.9 15.0 15.0 15.0 15.0 0.1 0.0 0.1 0.1 11.3 3.3 10.4 9.4 15.0 15.0 15.0 15.0 15.0 15.0 15.0 15.0 15.0 15.0 15.0 15.0 15.0 15.0 15.0
15.0 15.0 15.0 15.0 15.0 7.2 10.1 13.0 15.0 15.0 7.3 6.5 15.0 15.0 15.0 15.0 8.4 0.1 0.1 0.4 4.1 3.2 15.0 15.0 15.0 15.0 15.0 15.0 15.0 15.0 15.0 15.0 15.0 15.0 15.0 15.0 15.0 15.0
15.0 15.0 15.0 15.0 15.0 15.0 15.0 11.7 15.0 15.0 15.0 12.7 15.0 15.0 15.0 11.9 10.4 0.2 15.0 15.0 10.0 3.9 15.0 15.0 15.0 15.0 15.0 15.0 15.0 15.0 15.0 15.0 15.0 15.0 15.0 15.0 15.0 15.0
15.0 15.0 15.0 15.0 15.0 15.0 15.0 15.0 15.0 15.0 15.0 15.0 15.0 15.0 15.0 15.0 9.0 15.0 10.8 5.7 7.5 8.3 15.0 6.5 15.0 15.0 15.0 15.0 15.0 15.0 15.0 15.0 15.0 15.0 15.0 15.0 15.0 15.0
15.0 15.0 15.0 15.0 15.0 11.5 8.4 15.0 15.0 15.0 7.3 15.0 13.8 0.4 11.8 13.1 13.7 3.0 0.4 4.4 5.7 2.3 9.3 4.8 2.5 15.0 15.0 15.0 15.0 15.0 15.0 15.0 15.0 15.0 15.0 15.0 15.0 15.0
15.0 15.0 15.0 14.2 15.0 13.7 1.4 15.0 15.0 15.0 15.0 14.1 3.0 0.4 0.1 0.1 7.3 4.2 14.0 2.8 7.6 9.5 11.4 4.8 13.7 10.0 13.2 14.4 15.0 15.0 15.0 15.0 15.0 15.0 15.0 15.0 15.0 15.0
15.0 15.0 15.0 3.9 0.3 0.0 0.0 15.0 10.4 10.2 2.5 3.8 1.2 0.4 0.1 2.8 5.9 5.0 3.8 2.5 4.6 8.7 5.6 2.5 2.6 3.6 3.6 4.7 15.0 15.0 15.0 15.0 15.0 15.0 15.0 15.0 15.0 15.0
2.5 15.0 15.0 0.0 0.0 0.0 0.0 0.0 0.0 0.7 0.5 0.1 0.1 0.1 0.1 0.1 0.1 0.8 2.7 2.7 4.2 2.5 1.8 1.9 1.5 2.5 3.9 8.0 13.5 15.0 15.0 15.0 15.0 15.0 15.0 15.0 15.0 15.0
15.0 15.0 15.0 0.1 0.0 0.0 0.0 0.0 0.0 0.1 0.1 0.1 0.1 0.1 0.2 0.8 15.0 6.3 4.5 1.3 2.5 2.7 4.4 3.5 4.5 5.2 11.0 14.8 15.0 15.0 15.0 15.0 15.0 15.0 15.0 15.0 15.0 15.0
1.3 0.2 7.4 12.6 0.1 0.0 0.0 0.0 0.1 0.1 1.0 0.1 0.1 0.5 12.4 15.0 12.3 15.0 15.0 10.8 2.7 2.0 4.1 15.0 15.0 15.0 15.0 15.0 15.0 15.0 15.0 15.0 15.0 15.0 15.0 15.0 15.0 15.0
0.0 0.1 0.1 0.0 0.2 0.0 0.0 0.0 0.1 0.6 0.1 2.3 2.1 3.6 14.1 14.8 15.0 15.0 15.0 15.0 5.5 3.3 8.5 15.0 15.0 15.0 15.0 15.0 15.0 15.0 15.0 15.0 15.0 15.0 15.0 15.0 15.0 15.0
0.1 0.1 0.0 0.0 0.0 0.0 0.0 0.1 0.2 0.7 4.3 12.1 14.6 11.0 15.0 13.0 15.0 15.0 15.0 15.0 6.6 13.6 14.3 15.0 15.0 15.0 15.0 15.0 15.0 15.0 15.0 15.0 15.0 15.0 15.0 15.0 15.0 15.0
1.2 0.1 0.1 0.1 0.1 0.1 0.1 0.2 0.1 7.7 13.6 14.6 7.3 15.0 15.0 14.5 15.0 15.0 15.0 15.0 15.0 15.0 15.0 15.0 15.0 15.0 15.0 15.0 15.0 15.0 15.0 15.0 15.0 15.0 15.0 15.0 15.0 15.0
8.2 0.7 0.1 0.2 0.2 0.2 0.4 0.5 0.9 7.6 9.0 15.0 15.0 15.0 15.0 15.0 15.0 15.0 15.0 15.0 15.0 15.0 15.0 15.0 15.0 15.0 15.0 15.0 15.0 15.0 15.0 15.0 15.0 15.0 15.0 15.0 15.0 15.0
14.8 15.0 6.4 1.4 0.8 4.5 8.7 13.8 15.0 13.3 11.2 14.9 15.0 15.0 15.0 15.0 15.0 15.0 15.0 15.0 15.0 15.0 15.0 15.0 15.0 15.0 15.0 15.0 15.0 15.0 15.0 15.0 15.0 15.0 15.0 15.0 15.0 15.0
15.0 15.0 15.0 10.1 5.4 2.8 7.0 10.7 13.7 15.0 15.0 15.0 15.0 15.0 15.0 15.0 15.0 15.0 15.0 15.0 15.0 15.0 15.0 15.0 15.0 15.0 15.0 15.0 15.0 15.0 15.0 15.0 15.0 15.0 15.0 15.0 15.0 15.0
15.0 15.0 15.0 15.0 10.3 7.0 5.0 14.3 6.9 9.4 13.0 15.0 15.0 15.0 15.0 15.0 15.0 15.0 15.0 15.0 15.0 15.0 15.0 15.0 15.0 15.0 15.0 15.0 15.0 15.0 15.0 15.0 15.0 15.0 15.0 15.0 15.0 15.0

GFSNE_sfc_vis_165.txt.gz
Visibility
15.0 15.0 15.0 15.0 15.0 15.0 15.0 15.0 15.0 15.0 15.0 15.0 15.0 15.0 15.0 15.0 15.0 15.0 15.0 15.0 15.0 15.0 15.0 15.0 15.0 15.0 15.0 15.0 15.0 15.0 15.0 15.0 15.0 15.0 15.0 15.0 15.0 15.0
15.0 15.0 15.0 15.0 15.0 15.0 15.0 11.5 15.0 15.0 15.0 15.0 15.0 15.0 15.0 15.0 13.5 15.0 12.8 15.0 3.6 15.0 15.0 15.0 15.0 15.0 15.0 15.0 15.0 15.0 15.0 15.0 15.0 15.0 15.0 15.0 15.0 15.0
7.9 15.0 15.0 8.2 15.0 15.0 15.0 9.1 15.0 13.7 12.1 15.0 15.0 15.0 15.0 15.0 15.0 15.0 15.0 15.0 15.0 5.4 13.6 9.0 15.0 15.0 15.0 15.0 15.0 15.0 15.0 15.0 15.0 15.0 15.0 15.0 15.0 15.0
15.0 15.0 15.0 12.0 15.0 15.0 15.0 15.0 15.0 12.2 15.0 8.0 13.6 15.0 14.8 15.0 15.0 15.0 15.0 15.0 15.0 8.1 7.9 15.0 15.0 15.0 15.0 15.0 15.0 15.0 15.0 15.0 15.0 15.0 15.0 15.0 15.0 15.0
15.0 15.0 15.0 6.9 15.0 15.0 14.0 15.0 9.2 9.6 5.8 15.0 15.0 12.9 13.3 15.0 15.0 12.7 15.0 12.0 3.3 15.0 15.0 15.0 15.0 15.0 15.0 15.0 15.0 15.0 15.0 15.0 15.0 15.0 15.0 15.0 15.0 15.0
15.0 15.0 15.0 15.0 15.0 5.8 9.8 14.5 12.3 7.9 8.9 14.5 15.0 13.2 13.3 4.7 14.0 0.1 0.0 0.1 0.2 9.1 15.0 10.6 15.0 15.0 15.0 15.0 15.0 15.0 15.0 15.0 15.0 15.0 15.0 15.0 15.0 15.0
15.0 15.0 15.0 15.0 15.0 15.0 13.7 15.0 13.2 15.0 15.0 15.0 13.4 15.0 12.7 15.0 0.3 0.1 0.1 0.1 5.1 10.7 15.0 6.8 15.0 15.0 15.0 15.0 15.0 15.0 15.0 15.0 15.0 15.0 15.0 15.0 15.0 15.0
15.0 15.0 15.0 15.0 15.0 15.0 15.0 15.0 15.0 15.0 15.0 15.0 15.0 15.0 15.0 14.8 4.8 0.0 0.1 0.0 0.0 2.1 15.0 6.6 15.0 15.0 15.0 15.0 15.0 15.0 15.0 15.0 15.0 15.0 15.0 15.0 15.0 15.0
15.0 15.0 15.0 15.0 15.0 15.0 15.0 3.8 15.0 13.8 15.0 12.9 15.0 15.0 15.0 15.0 12.0 0.7 0.2 5.2 15.0 1.4 11.2 9.6 15.0 15.0 15.0 15.0 15.0 15.0 15.0 15.0 15.0 15.0 15.0 15.0 15.0 15.0
15.0 15.0 15.0 15.0 15.0 15.0 15.0 15.0 15.0 15.0 15.0 15.0 15.0 15.0 15.0 15.0 10.3 7.4 15.0 15.0 2.2 1.4 4.7 14.5 15.0 15.0 15.0 15.0 15.0 15.0 15.0 15.0 15.0 15.0 15.0 15.0 15.0 15.0
15.0 15.0 15.0 15.0 15.0 11.6 15.0 15.0 15.0 15.0 3.2 15.0 13.0 2.7 0.1 14.2 15.0 15.0 0.1 0.0 0.0 0.1 9.0 4.8 1.0 13.9 15.0 15.0 15.0 15.0 15.0 15.0 15.0 15.0 15.0 15.0 15.0 15.0
15.0 15.0 15.0 15.0 15.0 14.1 14.5 7.8 15.0 15.0 15.0 15.0 15.0 1.0 0.1 1.3 0.1 12.4 5.5 0.0 0.5 0.0 11.8 0.4 2.5 6.4 8.9 7.9 5.8 13.4 6.2 15.0 15.0 15.0 15.0 15.0 15.0 15.0
15.0 15.0 15.0 15.0 9.7 0.1 0.0 11.3 15.0 4.4 6.9 7.4 10.0 6.0 0.1 0.1 0.1 0.2 4.3 2.5 2.6 3.8 2.5 3.1 2.8 1.9 2.7 0.1 3.3 4.5 14.8 15.0 15.0 15.0 15.0 15.0 15.0 15.0
0.3 15.0 15.0 15.0 0.0 0.0 0.0 0.1 0.0 0.1 13.4 1.8 0.0 0.0 0.0 0.1 0.1 0.1 0.6 1.2 3.3 1.2 9.1 5.7 3.6 1.9 2.7 3.5 1.9 7.5 10.9 12.2 15.0 15.0 15.0 13.7 11.3 15.0
15.0 15.0 15.0 15.0 15.0 0.1 0.1 0.0 0.0 0.1 0.1 0.0 0.1 0.1 0.1 0.1 0.3 0.8 5.6 7.4 15.0 13.3 3.2 0.3 1.8 5.2 14.1 11.5 13.4 15.0 14.2 14.9 15.0 15.0 15.0 15.0 15.0 15.0
0.1 12.8 15.0 15.0 15.0 15.0 0.3 0.0 0.0 0.1 0.1 0.1 0.1 0.1 2.2 10.9 0.2 14.1 9.1 15.0 15.0 14.4 15.0 8.6 1.8 1.8 4.7 7.8 15.0 15.0 15.0 15.0 15.0 15.0 15.0 15.0 15.0 15.0
0.1 0.1 0.0 0.0 0.1 5.1 11.7 0.0 0.0 0.1 0.1 0.1 0.1 0.1 0.1 0.3 0.4 11.7 15.0 14.7 15.0 13.9 3.2 4.7 9.3 5.0 5.8 12.1 15.0 15.0 15.0 15.0 15.0 15.0 15.0 15.0 15.0 15.0
0.0 0.1 0.1 0.1 0.1 12.2 0.0 0.1 0.1 0.1 0.2 1.7 10.9 11.0 6.2 12.9 10.9 13.6 15.0 15.0 13.5 11.9 13.3 10.5 15.0 15.0 15.0 15.0 15.0 15.0 15.0 15.0 15.0 15.0 15.0 15.0 15.0 15.0
0.4 0.1 0.1 0.1 0.0 0.0 0.0 0.1 0.1 0.3 14.8 15.0 15.0 12.3 15.0 15.0 15.0 15.0 15.0 15.0 15.0 15.0 15.0 15.0 15.0 15.0 15.0 15.0 15.0 15.0 15.0 15.0 15.0 15.0 15.0 15.0 15.0 15.0
0.7 0.1 0.1 0.1 0.1 0.1 0.1 0.1 0.1 8.8 15.0 15.0 15.0 13.5 14.3 15.0 15.0 15.0 15.0 15.0 15.0 15.0 15.0 15.0 15.0 15.0 15.0 15.0 15.0 15.0 15.0 15.0 15.0 15.0 15.0 15.0 15.0 15.0
15.0 10.5 9.0 1.6 0.8 5.6 1.0 1.9 5.4 9.9 8.4 14.2 14.8 15.0 15.0 15.0 15.0 15.0 15.0 15.0 15.0 15.0 15.0 15.0 15.0 15.0 15.0 15.0 15.0 15.0 15.0 15.0 15.0 15.0 15.0 15.0 15.0 15.0
15.0 15.0 15.0 15.0 7.5 8.4 14.1 6.4 9.1 12.9 15.0 15.0 15.0 15.0 15.0 15.0 15.0 15.0 15.0 15.0 15.0 15.0 15.0 15.0 15.0 15.0 15.0 15.0 15.0 15.0 15.0 15.0 15.0 15.0 15.0 15.0 15.0 15.0
15.0 15.0 15.0 15.0 15.0 15.0 15.0 15.0 15.0 15.0 15.0 15.0 15.0 15.0 15.0 15.0 15.0 15.0 15.0 15.0 15.0 15.0 15.0 15.0 15.0 15.0 15.0 15.0 15.0 15.0 15.0 15.0 15.0 15.0 15.0 15.0 15.0 15.0

GFSNE_sfc_vis_168.txt.gz
Visibility
15.0 14.3 15.0 15.0 15.0 15.0 15.0 15.0 15.0 15.0 15.0 15.0 15.0 15.0 15.0 15.0 1.5 15.0 6.6 1.1 15.0 15.0 15.0 15.0 15.0 15.0 15.0 15.0 15.0 15.0 15.0 15.0 15.0 15.0 15.0 15.0 15.0 15.0
15.0 15.0 15.0 15.0 15.0 15.0 15.0 15.0 15.0 13.7 15.0 15.0 15.0 15.0 15.0 15.0 0.2 15.0 15.0 15.0 15.0 15.0 15.0 15.0 15.0 15.0 15.0 15.0 15.0 15.0 15.0 15.0 15.0 15.0 15.0 15.0 15.0 15.0
15.0 15.0 15.0 9.6 15.0 15.0 15.0 15.0 15.0 14.3 15.0 15.0 15.0 15.0 15.0 15.0 15.0 15.0 15.0 15.0 12.4 15.0 15.0 5.3 15.0 15.0 15.0 15.0 15.0 15.0 15.0 15.0 15.0 15.0 15.0 15.0 15.0 15.0
15.0 8.1 15.0 14.6 15.0 15.0 15.0 15.0 15.0 15.0 15.0 15.0 15.0 15.0 15.0 3.4 11.9 15.0 15.0 15.0 15.0 8.0 15.0 15.0 15.0 15.0 15.0 15.0 15.0 15.0 15.0 15.0 15.0 15.0 15.0 15.0 15.0 15.0
15.0 15.0 15.0 15.0 15.0 15.0 15.0 15.0 15.0 15.0 15.0 15.0 15.0 15.0 15.0 13.5 12.9 15.0 15.0 15.0 15.0 15.0 11.9 12.2 15.0 15.0 15.0 15.0 15.0 15.0 15.0 15.0 15.0 15.0 15.0 15.0 15.0 15.0
15.0 15.0 15.0 15.0 15.0 14.1 8.3 10.3 11.4 15.0 14.4 15.0 15.0 15.0 14.1 15.0 4.4 15.0 0.1 15.0 15.0 15.0 10.9 15.0 11.8 14.7 13.4 15.0 15.0 15.0 15.0 15.0 15.0 15.0 15.0 15.0 15.0 15.0
15.0 15.0 15.0 15.0 15.0 15.0 5.5 7.6 9.0 9.1 15.0 15.0 15.0 15.0 15.0 15.0 15.0 15.0 15.0 11.3 8.6 15.0 15.0 4.9 14.8 14.3 15.0 15.0 15.0 15.0 15.0 15.0 15.0 15.0 15.0 15.0 15.0 15.0
15.0 15.0 15.0 15.0 15.0 15.0 15.0 15.0 15.0 14.9 14.8 15.0 15.0 15.0 15.0 15.0 6.4 9.9 4.2 0.0 0.0 8.3 15.0 15.0 15.0 15.0 14.3 15.0 15.0 15.0 15.0 15.0 15.0 15.0 15.0 15.0 15.0 15.0
15.0 15.0 15.0 15.0 15.0 15.0 15.0 3.0 15.0 13.7 15.0 9.0 9.3 15.0 14.8 10.8 8.0 4.3 6.9 15.0 7.7 15.0 14.5 15.0 15.0 12.3 15.0 15.0 15.0 15.0 15.0 15.0 15.0 15.0 15.0 15.0 15.0 15.0
15.0 15.0 15.0 15.0 15.0 15.0 15.0 15.0 15.0 15.0 12.0 15.0 15.0 15.0 15.0 14.7 10.1 7.5 15.0 15.0 4.3 13.5 13.4 15.0 15.0 10.9 10.8 14.7 15.0 15.0 15.0 15.0 15.0 15.0 15.0 15.0 15.0 15.0
15.0 15.0 15.0 15.0 15.0 15.0 15.0 15.0 14.7 11.7 6.2 15.0 13.6 0.1 0.0 0.0 0.7 4.4 4.4 0.0 0.0 0.0 15.0 14.1 7.3 10.6 8.5 11.3 15.0 15.0 15.0 15.0 15.0 15.0 15.0 15.0 15.0 15.0
15.0 15.0 15.0 15.0 15.0 15.0 15.0 13.4 14.1 11.4 5.0 5.1 13.5 1.0 1.4 2.5 0.1 7.3 6.5 0.0 0.1 0.0 1.5 0.1 0.9 6.1 0.1 13.7 9.9 11.9 5.5 4.2 13.9 15.0 15.0 15.0 15.0 15.0
15.0 15.0 15.0 15.0 15.0 15.0 12.2 15.0 15.0 11.5 13.2 7.1 4.8 3.1 3.9 0.9 0.1 0.1 0.1 0.3 0.3 0.5 2.1 3.7 2.9 3.4 9.4 0.2 2.4 2.2 3.5 9.3 9.5 9.7 15.0 15.0 15.0 15.0
15.0 15.0 15.0 15.0 15.0 0.4 0.1 3.4 0.2 0.1 14.8 10.5 5.4 0.0 0.0 0.1 0.1 4.8 5.3 0.2 0.3 5.3 3.1 4.0 11.1 15.0 15.0 2.8 0.8 1.2 8.0 14.0 7.2 14.4 15.0 15.0 14.8 15.0
15.0 15.0 15.0 15.0 15.0 15.0 15.0 15.0 0.1 0.3 9.5 2.3 0.0 0.1 14.5 15.0 0.1 0.1 0.2 13.4 11.8 2.2 0.7 10.9 15.0 8.0 3.3 2.3 1.5 7.1 7.9 13.8 15.0 10.0 15.0 15.0 15.0 15.0
2.1 2.8 15.0 15.0 15.0 15.0 15.0 7.8 15.0 0.5 0.0 0.6 12.6 0.5 0.2 2.1 0.2 15.0 15.0 15.0 0.2 0.1 0.2 10.3 15.0 15.0 10.4 3.7 8.0 4.8 7.1 6.8 15.0 15.0 15.0 15.0 15.0 15.0
0.0 4.5 0.1 0.1 0.0 0.1 12.3 15.0 7.6 0.5 0.1 0.1 0.1 0.1 0.1 0.3 3.3 15.0 15.0 15.0 2.4 0.1 0.1 0.1 5.4 4.4 4.4 15.0 13.2 9.2 10.1 15.0 15.0 15.0 15.0 15.0 15.0 15.0
0.2 0.1 0.0 0.1 0.2 10.5 15.0 3.3 0.1 0.1 0.1 0.1 0.1 0.1 0.1 0.1 2.1 11.1 15.0 15.0 15.0 15.0 1.3 1.9 13.5 13.7 9.8 7.5 15.0 15.0 15.0 15.0 15.0 15.0 15.0 15.0 15.0 15.0
0.6 0.1 0.1 0.0 0.1 0.1 0.1 0.1 0.1 0.1 6.3 4.0 4.8 7.4 14.8 15.0 15.0 15.0 15.0 15.0 15.0 15.0 11.5 11.3 10.9 13.3 15.0 8.9 15.0 15.0 15.0 15.0 15.0 15.0 15.0 15.0 15.0 15.0
15.0 1.0 0.1 0.1 0.1 0.1 0.1 0.1 0.1 0.7 7.9 12.9 15.0 15.0 15.0 14.9 15.0 15.0 15.0 15.0 15.0 15.0 15.0 15.0 15.0 15.0 15.0 15.0 15.0 15.0 15.0 15.0 15.0 15.0 15.0 15.0 15.0 15.0
15.0 15.0 0.3 6.9 2.6 0.5 2.8 1.6 7.8 5.8 11.7 15.0 15.0 15.0 15.0 15.0 15.0 15.0 15.0 15.0 15.0 15.0 15.0 15.0 15.0 15.0 15.0 15.0 15.0 15.0 15.0 15.0 15.0 15.0 15.0 15.0 15.0 15.0
15.0 15.0 15.0 15.0 15.0 15.0 15.0 15.0 15.0 12.0 15.0 15.0 15.0 15.0 15.0 15.0 15.0 15.0 15.0 15.0 15.0 15.0 15.0 15.0 15.0 15.0 15.0 15.0 15.0 15.0 15.0 15.0 15.0 15.0 15.0 15.0 15.0 15.0
15.0 15.0 15.0 15.0 15.0 15.0 15.0 15.0 15.0 15.0 15.0 15.0 15.0 15.0 15.0 15.0 15.0 15.0 15.0 15.0 15.0 15.0 15.0 15.0 15.0 15.0 15.0 15.0 15.0 15.0 15.0 15.0 15.0 15.0 15.0 15.0 15.0 15.0

GFSNE_sfc_vis_171.txt.gz
Visibility
15.0 15.0 15.0 15.0 15.0 15.0 15.0 15.0 15.0 15.0 15.0 15.0 15.0 15.0 15.0 15.0 15.0 15.0 15.0 15.0 15.0 15.0 15.0 15.0 15.0 15.0 15.0 15.0 15.0 15.0 15.0 15.0 15.0 15.0 15.0 15.0 15.0 15.0
15.0 15.0 12.9 15.0 15.0 15.0 15.0 15.0 15.0 15.0 15.0 15.0 15.0 15.0 15.0 15.0 15.0 15.0 9.6 15.0 15.0 15.0 15.0 15.0 15.0 15.0 15.0 15.0 15.0 15.0 15.0 15.0 15.0 15.0 15.0 15.0 15.0 15.0
15.0 15.0 13.4 10.1 15.0 15.0 15.0 15.0 15.0 15.0 15.0 15.0 15.0 15.0 15.0 15.0 15.0 15.0 12.0 15.0 15.0 15.0 15.0 15.0 15.0 15.0 15.0 15.0 15.0 15.0 15.0 15.0 15.0 15.0 15.0 15.0 15.0 15.0
5.7 6.7 15.0 15.0 5.2 4.2 15.0 8.2 15.0 15.0 15.0 14.7 15.0 15.0 15.0 15.0 15.0 14.3 3.3 2.7 15.0 8.0 15.0 15.0 15.0 15.0 15.0 15.0 15.0 15.0 15.0 15.0 15.0 15.0 15.0 15.0 15.0 15.0
15.0 13.8 8.9 7.9 15.0 13.1 11.1 15.0 15.0 15.0 15.0 15.0 14.6 15.0 15.0 15.0 15.0 15.0 13.2 15.0 15.0 13.3 11.9 15.0 15.0 15.0 15.0 14.8 15.0 15.0 15.0 15.0 15.0 15.0 15.0 15.0 15.0 15.0
8.4 13.8 9.0 6.6 10.1 9.7 12.8 15.0 14.7 15.0 15.0 14.3 15.0 15.0 15.0 15.0 15.0 15.0 15.0 15.0 15.0 15.0 15.0 15.0 15.0 15.0 15.0 14.7 13.8 15.0 15.0 15.0 15.0 15.0 15.0 15.0 15.0 15.0
11.9 15.0 15.0 15.0 15.0 13.0 7.5 7.7 5.7 13.4 15.0 15.0 15.0 15.0 15.0 15.0 15.0 15.0 15.0 15.0 7.7 15.0 15.0 15.0 15.0 15.0 15.0 15.0 15.0 15.0 15.0 15.0 15.0 15.0 15.0 15.0 15.0 15.0
15.0 15.0 15.0 15.0 15.0 15.0 15.0 15.0 14.4 4.2 8.6 13.7 15.0 15.0 15.0 15.0 15.0 14.9 15.0 0.1 0.0 10.2 15.0 15.0 15.0 15.0 15.0 15.0 15.0 15.0 15.0 15.0 15.0 15.0 15.0 15.0 15.0 15.0
15.0 15.0 15.0 15.0 15.0 15.0 15.0 15.0 5.0 10.1 11.5 11.9 14.0 15.0 15.0 15.0 12.4 9.6 5.7 4.0 15.0 15.0 12.7 11.7 13.2 15.0 15.0 15.0 15.0 13.6 15.0 15.0 15.0 15.0 15.0 15.0 15.0 15.0
15.0 15.0 15.0 15.0 15.0 15.0 15.0 11.4 15.0 14.3 15.0 15.0 12.2 15.0 13.4 15.0 8.7 9.8 8.2 15.0 12.1 13.2 15.0 15.0 12.2 15.0 15.0 15.0 13.9 9.4 15.0 15.0 15.0 15.0 15.0 15.0 15.0 15.0
15.0 15.0 15.0 15.0 15.0 15.0 15.0 15.0 15.0 15.0 15.0 11.3 14.8 8.1 3.3 0.0 0.6 3.0 2.8 2.9 0.0 0.1 5.2 13.1 15.0 9.0 9.2 14.9 14.7 12.2 15.0 15.0 15.0 15.0 15.0 15.0 15.0 15.0
15.0 15.0 15.0 15.0 15.0 15.0 15.0 15.0 15.0 15.0 15.0 15.0 8.9 0.4 0.0 0.3 0.0 5.1 3.4 2.2 0.1 0.0 1.2 0.1 0.7 2.1 0.1 1.1 2.6 7.7 9.1 11.1 4.7 3.6 5.3 15.0 14.9 15.0
15.0 15.0 15.0 15.0 15.0 15.0 7.1 15.0 15.0 15.0 15.0 15.0 13.7 10.7 7.2 14.5 0.5 15.0 0.2 0.7 0.3 0.1 10.5 14.4 15.0 8.9 7.9 0.1 9.3 9.3 6.3 1.0 2.8 4.5 10.3 15.0 15.0 15.0
15.0 15.0 15.0 15.0 15.0 15.0 0.2 15.0 5.4 0.1 15.0 15.0 14.8 8.1 0.0 1.9 0.1 0.4 4.4 2.4 2.8 8.9 15.0 15.0 15.0 15.0 15.0 12.4 0.3 2.2 0.4 2.7 4.7 14.2 15.0 15.0 15.0 15.0
15.0 15.0 15.0 15.0 15.0 5.6 15.0 15.0 15.0 15.0 15.0 15.0 15.0 0.1 0.4 0.6 0.7 12.5 15.0 15.0 5.2 15.0 15.0 15.0 15.0 15.0 15.0 11.7 12.3 8.1 0.1 1.7 4.9 14.8 15.0 15.0 15.0 15.0
15.0 15.0 15.0 14.6 2.5 15.0 15.0 15.0 15.0 15.0 15.0 15.0 14.4 1.3 3.6 12.7 15.0 15.0 11.2 15.0 0.1 0.0 10.1 14.9 14.7 10.9 10.8 15.0 15.0 3.9 9.5 5.3 12.4 15.0 15.0 10.8 15.0 15.0
0.1 11.7 0.8 8.7 0.1 0.1 1.8 15.0 15.0 14.8 14.6 7.3 0.1 0.1 0.2 1.2 10.6 15.0 15.0 8.8 0.1 0.0 0.0 1.7 14.2 15.0 15.0 15.0 1.5 15.0 15.0 12.3 12.5 15.0 15.0 15.0 15.0 15.0
10.5 4.2 0.1 0.1 0.1 0.3 0.7 5.4 4.7 0.1 0.1 0.1 0.1 0.1 0.1 0.2 0.5 15.0 15.0 4.3 0.1 0.1 0.0 0.1 0.3 0.3 15.0 2.2 12.8 14.1 8.2 8.4 10.1 15.0 15.0 15.0 15.0 15.0
15.0 3.6 0.1 0.1 0.1 0.1 0.1 0.1 0.0 0.1 1.7 0.1 0.1 1.3 14.9 14.7 15.0 15.0 6.8 15.0 15.0 15.0 14.5 14.6 15.0 15.0 15.0 0.5 7.0 13.0 15.0 15.0 15.0 15.0 15.0 15.0 15.0 15.0
15.0 0.1 0.1 2.6 0.1 0.1 0.1 0.1 0.2 0.2 0.4 2.4 3.3 7.5 14.0 13.6 15.0 15.0 15.0 15.0 15.0 15.0 15.0 15.0 15.0 15.0 15.0 15.0 15.0 15.0 15.0 15.0 15.0 15.0 15.0 15.0 15.0 15.0
15.0 15.0 11.1 15.0 2.0 0.5 1.9 3.5 13.5 2.3 7.4 10.4 7.5 15.0 15.0 15.0 15.0 15.0 15.0 15.0 15.0 15.0 15.0 12.0 12.7 13.9 15.0 15.0 15.0 15.0 15.0 15.0 15.0 15.0 15.0 15.0 15.0 15.0
15.0 15.0 15.0 15.0 15.0 15.0 15.0 15.0 15.0 12.1 15.0 15.0 15.0 15.0 15.0 15.0 15.0 15.0 15.0 15.0 15.0 15.0 15.0 15.0 15.0 15.0 15.0 15.0 15.0 15.0 15.0 15.0 15.0 15.0 15.0 15.0 15.0 15.0
15.0 15.0 15.0 15.0 15.0 15.0 15.0 15.0 15.0 15.0 15.0 15.0 15.0 15.0 15.0 15.0 15.0 15.0 15.0 15.0 15.0 15.0 15.0 15.0 15.0 15.0 15.0 15.0 15.0 15.0 15.0 15.0 15.0 15.0 15.0 15.0 15.0 15.0